OPS 4682 DEB, 38397

Orbit data source: Space-Track

OPS 4682 DEB, 38397 is space debris in LEO originally from a launch on Sat, 03 Apr 1965 UTC launched from the Air Force Western Test Range (AFWTR). Debris objects in space refer to the collection of defunct objects orbiting the Earth. Examples of debris include non-operational satellites, rocket bodies, and fragments generated from explosions, collisions, or faulty payload assembly.

Loading next visibility...
Identifier
38397, 1965-027DA
Orbit
LEO
Country
Flag of USUS
Related business
Manufacturer
Unknown
Mission
Spacecraft
Bus & Motor
Unknown
Mass
Unknown
Launch date (UTC)
1965-04-03 (61 years ago)
Launch vehicle
Unknown
Launch site
Air Force Western Test Range (AFWTR)
Object type
Payload
Rocket body
Debris
Shape & HBR
Unknown shape, 0.1 m
Radar Cross Section
Small (<0.1 m²)

Expand to show TLE details & history
Last TLE update: 13 hours ago

TLE from 13 hours ago
0 OPS 4682 DEB
1 38397U 65027DA  26119.15731853  .00000866  00000-0  28449-2 0  9991
2 38397  90.2558  16.4447 0041678  26.8129 333.5135 12.99976574656482
Epoch: 2026-04-29T03:46Z
TLE epoch observation values (Epoch: 2026-04-29T03:46:32.320Z)
Latitude
-0.00002°
Longitude
102.68772°
Altitude
1,236.582 km
Speed
7.25 km/s
True Right ascension
01h 05m 46s
True Declination
0° 00' 00"
Sunlit
Object was in daylight at epoch
Visualization orbit readout
Latitude
Unknown
Longitude
Unknown
Altitude
Unknown
Speed
Unknown
Apparent Right ascension
Unknown
Apparent Declination
Unknown
Sunlit
N/A
Visualization observer readout
Local Sidereal Time
00:35:07
Azimuth
Unknown
Elevation
Unknown
Doppler factor
Unknown
Orbital elements
Apogee altitude
1,291.137 km
Perigee altitude
1,227.474 km
Semi-major axis
7,637.442 km
Eccentricity
0.00417
Inclination
90.2558°
RAAN
16.4447°
Arg. of periapsis
26.8129°
True anomaly
333.2995°
Mean anomaly
333.5135°
Eccentric anomaly
333.4066°
Mean motion
3.25178 °/min
Orbital period
110.71 mins
BSTAR
0.0028449
Loading maneuver chart data...
Computing Atmospheric mass density...
Loading historical data...
Loading historical data...
Loading historical data...
Loading historical data...
Loading historical data...
Loading historical data...
Loading historical data...

Documentation

Showing up to 5 results
|